Location: Baker
(0.3678°N, 29.9058°E)
Time: 07:58:51
(UTC+00:00)

Daily predictions for brighter satellites

Satellite Brightness Start Highest point End
(mag) Time Altitude Azimuth Time Altitude Azimuth Time Altitude Azimuth
FALCON 9 R/B 4.0 15:16:29 10° WNW 15:22:24 72° SSW 16:03:27 10° ESE
CORIOLIS 4.5 16:12:52 10° S 16:18:16 75° WSW 16:23:37 10° NNW
Cosmos 494 Rocket 4.1 16:13:19 10° NNW 16:18:26 83° WSW 16:23:32 10° S
Cosmos 2016 Rocket 4.1 16:12:53 10° N 16:19:03 89° W 16:25:19 10° S
Cosmos 1939 Rocket 4.2 16:16:24 10° SE 16:19:27 21° ENE 16:22:31 10° NNE
GPS 2-15 Rocket1 3.2 16:14:45 10° WNW 16:19:28 83° NNE 16:24:09 10° ESE
STARLINK-1152 3.4 16:16:06 10° NNW 16:19:52 84° ENE 16:23:38 10° SE
DELTA-4 R/B 3.4 16:11:57 10° WSW 16:20:17 50° S 16:23:33 10° E
Cosmos 1864 Rocket 4.5 16:14:31 10° N 16:20:36 74° E 16:26:43 10° S
Cosmos 2061 Rocket 4.3 16:17:50 10° N 16:24:09 79° W 16:30:25 10° S
Envisat 4.2 16:23:16 10° S 16:28:04 44° WSW 16:32:53 10° NNW
Okean O Rocket 4.4 16:27:28 10° SW 16:30:24 17° WSW 16:33:20 10° WNW
CZ-4 R/B 2.3 16:27:50 10° SE 16:31:34 32° ENE 16:35:19 10° NNE
Helios 1A Rocket 4.1 16:29:00 10° S 16:32:52 44° WSW 16:36:44 10° NNW
ARGOS Delta rocket 4.2 16:29:22 10° SSE 16:34:09 46° E 16:38:39 10° N
CZ-2C R/B 4.3 16:32:32 10° E 16:34:40 12° ESE 16:36:45 10° SE
Cosmos 1461 3.6 16:37:00 10° S 16:40:20 28° ESE 16:43:43 10° NE
NOAA 11 4.2 16:35:43 10° SSE 16:41:10 65° ENE 16:46:36 10° N
CZ-2D R/B 3.8 16:40:08 10° SSE 16:43:45 39° E 16:47:21 10° N
Meteor 1-11 Rocket 4.3 16:39:42 10° NNE 16:44:39 34° E 16:49:37 10° SSE
Cosmos 1703 Rocket 4.5 16:41:38 10° SSE 16:45:17 27° E 16:48:55 10° NE
Genesis I 3.0 16:42:50 10° NNW 16:46:39 81° ENE 16:50:28 10° SSE
BLOCK DM-SL R/B 3.6 16:44:01 10° W 16:48:04 89° N 17:00:01 11° E
Cosmos 1943 3.2 16:43:21 10° NNW 16:48:58 87° WSW 16:54:35 10° SSE
Cosmos 1500 3.1 16:46:43 10° N 16:50:30 71° E 16:54:17 10° S
Cosmos 1603 4.3 16:47:13 10° NNW 16:52:50 59° WSW 16:58:29 10° S
Cosmos 1624 Rocket 4.2 16:47:39 10° SSW 16:52:55 76° WNW 16:58:11 10° N
Cosmos 2278 Rocket 2.2 16:48:57 10° SSW 16:54:37 89° ESE 17:00:17 10° NNE
Starlink 7 placeholder 2.6 16:52:38 10° SW 16:55:14 69° WNW 16:57:38 10° NNE
GPS 2-14 Rocket1 3.3 16:52:16 10° WSW 16:56:23 59° NNW 17:00:29 10° ENE
BLOCK DM-SL R/B 0.2 16:56:59 10° W 16:58:51 81° S 17:00:25 25° E
MOS 1 Rocket 4.0 16:57:41 10° NE 17:01:18 27° ESE 17:02:48 22° SE
Cosmos 1536 3.6 16:58:14 10° NNE 17:01:51 32° E 17:03:11 25° ESE
STARLINK-1132 4.4 17:03:04 10° N 17:06:50 35° NE 17:08:04 28° E
Cosmos 405 Rocket 3.5 17:04:32 10° NNW 17:08:17 52° W 17:11:58 10° S
ARIANE 5 DEB (SYLDA) 3.9 17:01:58 10° WSW 17:10:03 36° SSW 17:11:31 26° SSE
Cosmos 2346 Rocket 4.3 17:04:42 10° S 17:10:44 76° E 17:16:48 10° N
Atlas Centaur 2 3.9 17:03:57 10° W 17:10:52 38° SSW 17:16:49 17° SSE
Cosmos 44 4.4 17:06:06 10° NW 17:10:58 46° WSW 17:16:02 10° S
STARLINK-1177 4.2 17:07:56 10° NNW 17:11:49 40° NE 17:12:52 33° E
Cosmos 1666 2.9 17:08:12 10° NNE 17:11:51 46° E 17:12:49 37° SE
Cosmos 371 Rocket 3.5 17:09:12 10° S 17:13:48 45° ESE 17:18:23 10° NNE
STARLINK-1167 4.0 17:12:50 10° NNW 17:16:48 47° NE 17:17:40 40° E
CSL-04 Rocket 3.6 17:15:34 16° SSE 17:19:58 76° ENE 17:25:26 10° N
Okean-O 4.5 17:16:37 10° SSW 17:20:28 30° WSW 17:24:19 10° NW
H-2A R/B 2.8 17:20:57 29° ENE 17:21:00 29° ENE 17:25:18 10° NNE
SL-24 R/B 4.0 17:19:07 29° SSE 17:21:15 70° ENE 17:25:45 10° N
SL-4 R/B 2.1 17:17:24 10° SW 17:21:35 88° WNW 17:26:06 10° NE
STARLINK-1168 3.7 17:17:42 10° NNW 17:21:45 55° ENE 17:22:25 48° E
Okean 1-7 2.9 17:20:28 10° S 17:24:48 88° E 17:29:04 10° N
BLOCK DM-SL R/B 1.9 17:23:28 10° WNW 17:25:17 38° NW 17:25:17 38° NW
STARLINK-1164 3.5 17:22:36 10° NNW 17:26:42 65° ENE 17:27:11 58° E
HETE-2 4.3 17:26:58 10° W 17:31:06 79° S 17:31:23 73° SE
STARLINK-1182 3.4 17:27:33 10° NNW 17:31:40 76° NE 17:31:59 71° ESE
Cosmos 1072 Rocket 4.4 17:25:52 10° N 17:32:04 69° E 17:35:30 28° SSE
NOSS 2-2 (D) 3.3 17:27:58 10° SSW 17:32:51 84° ESE 17:36:41 10° NNE
Cosmos 1464 Rocket 4.0 17:26:49 10° N 17:33:05 63° E 17:36:04 32° SSE
YAOGAN 1 3.8 17:29:08 10° S 17:33:12 40° WSW 17:37:14 10° NNW
BREEZE-M DEB (TANK) 3.7 17:33:41 10° N 17:35:22 26° NNE 17:35:22 26° NNE
STARLINK-1163 3.4 17:32:31 10° NNW 17:36:38 89° NE 17:36:47 84° SE
STARLINK-1172 3.6 17:37:29 10° NW 17:41:34 78° WSW 17:41:34 78° WSW
Meteor 1-19 Rocket 4.4 17:37:16 10° SSW 17:42:43 70° W 17:48:17 10° N
OAO 2 Rocket 4.4 17:41:42 10° WNW 17:46:35 36° SW 17:47:33 34° SSW
STARLINK-1145 3.9 17:42:30 10° NW 17:46:22 65° W 17:46:22 65° W
Meteor 1-4 Rocket 3.7 17:48:21 38° NW 17:48:21 38° NW 17:50:49 10° N
STARLINK-1161 4.2 17:47:30 10° NW 17:51:09 54° W 17:51:09 54° W
ARGOS 3.5 17:52:47 48° NE 17:52:47 48° NE 17:57:05 10° N
Meteor 2-4 Rocket 3.4 17:51:54 75° SE 17:52:14 78° E 17:57:36 10° N
CZ-2C R/B 3.9 17:47:42 10° N 17:52:16 70° WNW 17:53:42 43° SSW
Cosmos 2251 Rocket 3.8 17:47:31 10° NNW 17:52:40 62° WSW 17:54:09 44° SSW
Gbstr 26 Del rocket 4.0 17:46:44 10° NNW 17:54:19 74° NE 17:55:20 63° ESE
ATLAS 5 CENTAUR R/B 2.7 17:53:21 10° WSW 17:57:02 38° S 17:57:02 38° S
ARIANE 5 DEB (SYLDA) 2.6 17:52:52 10° W 17:58:50 74° S 17:58:53 74° S
Cosmos 2297 3.7 17:59:33 69° NNE 17:59:33 69° NNE 18:04:29 10° NNE
IRS-1A Rocket 4.4 17:59:58 62° NE 17:59:58 62° NE 18:05:10 10° N
CZ-2C R/B 3.1 18:04:52 73° WSW 18:04:53 73° WSW 18:10:16 10° NNW
Cosmos 1607 3.9 18:03:01 10° NNW 18:09:27 89° WSW 18:09:30 89° S
USA 267 3.3 18:11:15 62° NE 18:11:15 62° NE 18:17:29 10° NNW
CZ-2C R/B 3.7 18:09:22 10° N 18:14:39 45° WNW 18:18:34 17° SW
